Location: Boca do Mato
(22.9085°S, 43.2930°W)
Time: 21:58:19
(UTC+00:00)

CCE 1 Rocket - Pass Details

Date: 14 July 2020
Orbit: 544 x 3982 km, 28.9° (Epoch: 10 August)

Event Time Altitude Azimuth Distance (km) Brightness Sun altitude
Exits shadow 08:28:18 - 300° (WNW) 3,867 7.2 -15.0°
Reaches altitude 10° 08:30:40 10° 302° (WNW) 2,936 6.6 -14.4°
Maximum altitude 08:37:00 59° 21° (NNE) 838 4.4 -13.0°
Drops below altitude 10° 08:41:06 10° 101° (E) 1,917 7.1 -12.2°
Sets 08:43:04 0° 105° (ESE) 2,734 7.9 -11.7°
